Lapse_Rate
6.0 8.7 9.8 9.0 6.5 6.5 6.5 6.5 6.5 6.5 6.5 7.4 7.8 7.2 6.7 7.2 6.6 6.5 9.9 10.1 10.1 10.2 9.3 7.7 5.9 5.7 5.7 5.7 5.6 5.7 6.6 7.0 6.7 6.7 6.4 6.1 6.4 6.3 6.1 6.5 6.6 6.7 6.8 6.9 6.5 6.6 6.6 6.5 6.6
10.0 9.3 9.1 7.8 6.5 6.5 6.5 6.5 6.5 6.5 7.2 7.9 7.8 7.6 7.1 6.5 8.5 8.9 9.3 9.9 9.9 10.0 9.6 9.4 5.6 5.9 6.0 5.6 5.8 6.0 6.2 6.7 6.9 6.6 6.3 6.4 6.4 6.7 6.8 6.8 6.9 6.9 6.7 6.7 6.6 6.7 6.7 6.7 6.5
10.0 8.8 7.9 6.5 6.5 6.5 6.5 6.4 6.5 6.7 7.6 7.6 7.3 8.0 7.6 7.3 8.6 9.2 10.0 10.2 10.0 10.0 9.6 8.0 5.6 5.7 6.1 6.0 5.9 6.0 6.3 6.6 6.8 6.4 6.6 6.6 6.7 6.8 7.1 7.0 6.7 6.9 7.1 6.8 6.8 6.8 6.7 6.6 6.7
9.4 8.7 8.0 6.5 6.5 6.5 6.5 6.4 6.8 6.7 7.3 7.7 7.8 6.6 8.3 9.0 9.1 9.6 10.2 10.4 10.3 10.2 9.8 5.8 6.1 5.9 6.2 6.1 5.9 6.2 6.4 6.6 6.4 6.5 6.9 7.0 6.9 6.9 7.1 7.3 6.8 7.0 7.2 7.1 6.8 6.7 6.8 6.6 6.7
9.5 7.9 6.5 6.5 6.5 6.5 6.5 6.9 6.9 6.5 6.9 7.3 7.7 6.8 7.4 9.0 9.6 10.0 10.2 10.4 10.2 10.4 9.7 8.9 6.0 6.2 6.2 6.2 6.8 6.6 6.3 6.5 6.6 6.8 6.7 6.8 6.9 6.9 6.8 6.9 6.8 6.9 7.0 6.7 6.8 6.9 7.0 7.1 6.7
7.3 7.7 6.5 6.5 6.5 6.5 6.6 7.2 7.0 6.9 7.2 7.5 7.3 7.2 7.5 9.3 9.5 9.9 10.3 10.2 10.3 10.3 9.8 9.1 6.1 6.3 6.1 6.0 6.6 6.4 6.3 6.4 6.7 6.8 6.9 7.1 7.0 6.9 7.1 7.0 6.9 6.7 6.7 6.6 6.8 7.0 7.0 6.6 6.6
6.9 6.5 6.5 6.5 6.5 6.5 6.5 7.5 6.8 6.9 7.1 7.1 7.8 6.5 8.0 9.0 9.6 10.0 10.1 10.2 10.3 10.0 9.9 9.5 9.3 7.3 6.4 6.3 6.4 6.4 6.5 6.5 6.8 6.8 6.9 6.9 6.8 6.8 7.5 7.1 7.2 6.8 7.0 7.0 7.1 7.0 6.6 6.3 6.2
7.7 6.6 6.5 6.5 6.5 6.5 6.8 7.2 7.7 7.2 6.8 8.5 8.6 6.7 7.2 9.0 9.7 10.1 10.1 10.2 10.1 10.2 10.0 9.8 9.7 9.5 9.4 9.0 6.4 6.5 6.5 6.7 6.9 6.8 7.0 6.8 7.0 7.1 7.5 6.7 6.7 6.9 7.0 6.9 7.1 7.0 6.6 6.3 6.2
8.5 6.5 6.5 6.5 6.5 6.5 7.1 6.6 7.8 8.3 7.7 8.0 8.4 8.2 9.0 9.5 9.8 9.7 9.6 9.8 9.9 9.9 10.1 10.0 9.9 9.5 7.8 8.1 7.0 6.9 6.8 6.9 6.7 6.6 6.8 7.6 9.5 9.5 9.3 6.7 6.8 7.1 7.0 6.9 6.8 6.7 6.4 6.2 6.0
6.9 6.5 6.5 6.6 6.6 6.5 6.9 6.9 7.3 7.1 7.2 7.4 7.9 8.8 9.3 9.5 9.4 9.3 9.2 9.4 9.5 9.6 9.9 10.3 9.8 9.7 9.5 9.3 9.0 9.5 9.4 9.5 9.5 9.4 9.4 9.5 9.4 8.7 9.2 7.7 6.8 6.8 6.8 6.6 6.2 6.6 7.1 8.5 9.2
7.1 6.5 6.4 6.9 7.5 7.5 7.1 7.0 6.7 6.9 6.5 7.5 7.5 8.4 9.0 9.2 9.3 9.2 9.3 9.4 9.5 9.7 9.9 10.1 9.8 9.6 9.6 9.2 9.6 9.6 9.6 9.5 9.4 9.3 9.4 9.4 9.5 9.5 9.6 9.2 9.3 9.1 8.0 9.4 8.8 9.0 9.5 9.6 9.7
6.5 7.1 7.1 7.3 7.7 7.4 6.8 7.5 7.1 7.1 7.0 6.8 8.5 8.9 9.0 9.0 9.1 9.2 9.3 9.4 9.5 9.6 9.7 10.0 9.8 9.6 9.6 9.6 9.8 9.6 9.7 9.6 9.6 9.4 9.3 9.3 9.6 9.6 9.6 9.6 9.6 9.6 9.6 9.6 9.7 9.5 9.4 9.4 9.5
6.6 6.7 7.3 7.6 7.6 7.5 7.5 7.0 6.9 7.2 7.8 8.6 8.8 9.0 8.9 9.0 9.1 9.3 9.5 9.6 9.6 9.5 9.6 9.8 9.8 9.3 8.7 9.6 9.7 9.7 9.6 9.8 9.6 9.5 9.4 9.6 9.7 9.6 9.5 9.5 9.6 9.6 9.7 9.7 9.7 9.6 9.6 9.6 9.6
7.2 7.2 7.2 7.5 7.3 7.4 6.8 6.9 7.3 7.5 8.4 8.3 8.5 8.7 9.0 8.8 9.1 9.1 9.3 9.3 9.4 9.4 9.5 9.9 9.8 9.4 9.1 9.6 9.4 9.6 9.7 9.6 9.6 9.6 9.2 8.3 9.5 9.2 9.6 9.6 9.7 9.7 9.6 9.6 9.6 9.6 9.7 9.8 9.7
7.4 6.5 6.5 6.8 7.1 6.6 7.4 6.5 6.5 7.8 8.1 8.0 8.3 8.6 8.8 9.0 9.2 9.1 9.3 9.3 9.4 9.6 9.7 9.7 9.7 9.6 9.5 9.5 9.2 9.7 9.6 9.6 9.7 9.6 8.5 8.7 9.2 8.0 7.9 9.6 9.7 9.7 9.0 8.3 9.0 9.6 9.6 9.9 9.7
6.5 6.5 6.5 6.5 6.8 7.1 7.0 6.6 6.8 8.0 7.5 7.4 7.9 8.5 8.6 8.8 9.1 9.3 9.5 9.6 9.6 9.6 9.5 9.7 10.1 9.9 9.7 9.6 9.4 9.6 9.6 9.7 9.7 9.6 9.5 8.2 8.2 8.5 8.0 9.7 9.7 9.4 9.6 9.7 9.7 10.0 9.9 9.9 10.0
6.5 6.5 6.5 6.5 6.9 6.5 6.5 6.5 6.9 8.0 7.8 7.3 6.8 7.9 8.6 8.7 8.9 9.2 9.5 9.5 9.6 9.6 9.4 9.5 9.7 9.7 9.6 9.3 9.5 9.6 9.4 9.7 9.7 9.7 9.6 7.9 8.3 9.3 8.2 9.7 9.1 8.7 9.7 9.8 9.9 9.9 9.8 9.7 9.8
6.5 6.5 6.5 6.5 6.5 6.5 6.5 6.5 6.6 7.7 7.6 7.4 7.4 7.8 8.3 8.6 8.8 9.2 9.3 9.5 9.6 9.6 9.5 9.5 9.8 9.6 9.5 9.3 9.4 9.7 9.8 9.7 9.7 9.7 9.7 8.2 9.1 8.5 8.1 9.4 8.7 9.3 9.9 10.0 9.9 9.6 9.8 9.8 9.7
6.5 6.5 6.5 6.5 6.5 6.5 6.5 6.5 6.5 7.3 7.5 7.4 7.2 7.6 8.1 8.4 8.9 9.2 9.3 9.2 9.6 9.6 9.4 9.4 9.3 9.3 9.3 9.6 9.5 9.6 9.6 9.7 9.9 9.7 8.9 8.2 8.8 8.1 8.4 9.3 9.0 9.6 9.8 9.3 9.2 9.3 9.2 9.7 9.6
6.5 6.5 6.5 6.5 6.5 6.5 6.5 6.5 6.5 6.9 7.1 7.5 7.2 8.1 8.1 8.4 8.8 9.0 9.2 9.3 9.5 9.3 9.3 9.3 9.2 9.1 8.3 9.7 9.6 9.7 9.6 9.8 9.9 9.6 9.1 9.4 8.7 7.9 7.9 9.1 9.3 9.2 9.8 8.8 8.6 9.4 9.6 9.7 9.5
6.5 6.5 6.5 6.5 6.5 6.5 6.5 6.5 6.5 6.5 7.2 7.3 7.8 8.2 8.2 8.3 8.5 8.8 8.9 9.1 9.4 9.2 9.2 8.6 8.6 8.9 8.0 9.6 9.5 9.3 9.6 8.9 7.4 9.3 9.8 9.3 8.3 7.9 8.7 8.1 9.6 8.5 9.2 9.7 8.5 8.8 8.7 9.3 9.4
6.5 6.5 6.5 6.5 6.5 6.5 6.5 6.5 6.5 6.5 6.5 6.7 7.0 7.7 8.1 8.3 8.5 8.8 9.0 9.1 9.3 9.3 9.4 9.1 8.0 8.9 8.5 8.4 9.3 9.1 9.3 9.2 9.5 9.6 9.9 9.7 8.7 8.2 8.0 8.0 8.1 8.0 9.7 9.5 8.9 9.4 9.3 8.3 9.2
6.5 6.5 6.5 6.4 6.5 6.5 6.5 6.5 6.5 6.5 6.5 6.5 6.9 7.4 8.3 8.1 8.0 8.8 9.0 9.1 9.4 9.4 9.5 9.5 8.8 7.6 9.2 7.7 8.8 9.4 8.5 9.6 9.6 9.8 8.3 9.3 7.8 8.4 8.9 8.1 8.0 8.0 9.5 8.8 9.6 8.3 8.0 9.3 9.3
6.5 6.5 6.5 6.5 6.5 6.5 6.5 6.5 6.5 6.5 6.5 6.5 7.1 7.8 8.0 8.4 8.5 8.8 9.1 9.2 9.3 9.5 9.5 9.5 9.0 6.7 7.0 8.0 7.1 7.9 9.2 9.1 9.4 9.4 7.8 9.1 9.0 9.4 8.9 8.2 7.8 8.0 9.2 8.5 9.0 9.4 8.2 9.4 9.2
6.5 6.5 6.5 6.5 6.5 6.5 6.5 6.5 6.5 6.5 6.5 6.7 6.8 7.4 8.1 8.4 8.7 8.7 8.8 9.0 9.1 9.1 9.2 9.4 9.1 6.9 6.7 7.0 7.1 7.0 7.6 8.0 9.2 8.7 9.3 9.4 9.7 9.7 8.7 8.1 7.8 8.7 8.1 8.4 8.9 8.3 9.5 8.7 9.5
6.5 6.5 6.5 6.5 6.4 6.5 6.5 6.5 6.5 6.5 7.2 7.5 7.7 7.7 8.2 8.4 8.8 8.8 8.9 9.0 9.0 9.1 9.2 9.3 9.0 6.5 6.8 6.9 6.7 6.9 7.1 9.5 9.6 9.5 9.6 9.7 9.7 9.8 9.6 8.7 9.2 9.4 8.4 9.0 7.9 9.6 9.7 9.6 9.4
6.5 6.5 6.5 6.5 6.5 6.5 6.5 6.5 6.5 6.5 6.5 7.3 7.6 7.6 7.6 8.1 8.5 8.4 8.9 9.1 9.0 9.1 9.1 9.2 9.1 6.6 6.7 7.0 6.9 6.8 6.8 7.2 9.5 9.4 9.5 9.9 9.7 9.9 9.6 9.5 9.6 9.5 9.1 9.1 8.2 9.6 8.7 9.5 9.1
6.5 6.5 6.5 6.5 6.5 6.5 6.5 6.5 6.5 6.5 6.5 6.5 7.0 7.3 7.8 8.0 8.2 8.6 8.5 9.0 9.2 9.5 9.5 9.4 9.3 8.8 7.1 7.1 7.4 7.4 7.0 6.8 7.4 9.1 9.4 9.5 9.7 9.5 9.6 9.6 9.6 9.6 9.3 8.4 8.0 9.7 9.1 8.9 9.8
6.5 6.5 6.5 6.5 6.5 6.5 6.5 6.5 6.5 6.5 6.5 6.5 7.2 7.3 7.6 7.6 7.1 5.4 6.6 8.8 9.2 9.4 9.4 9.4 9.4 9.3 9.2 8.5 8.3 7.8 8.4 7.4 6.9 7.4 8.9 9.2 9.6 9.6 9.4 8.4 8.8 9.3 9.4 9.1 8.2 9.3 9.5 9.2 9.3
6.5 6.4 6.5 6.5 6.5 6.5 6.5 6.6 6.5 6.5 7.2 7.2 7.3 7.7 7.9 8.0 8.0 5.9 3.5 1.5 4.5 8.8 9.3 9.4 9.6 9.6 9.5 9.4 8.9 8.0 7.5 8.9 9.3 7.2 7.4 8.5 9.1 9.6 9.5 8.4 8.5 8.8 9.6 9.4 8.3 8.7 9.6 9.3 9.3
Wind_Speed
13 11 3 4 4 5 4 6 5 12 9 3 13 6 9 4 5 5 18 17 20 16 19 17 15 15 14 13 15 13 12 11 13 14 14 12 13 12 11 10 10 10 12 12 12 12 14 14 14
9 6 4 3 5 4 4 7 8 3 7 16 8 10 5 10 9 16 17 22 21 19 19 19 16 14 13 13 14 12 11 11 15 15 14 13 12 12 12 14 10 12 11 12 12 12 13 13 15
8 4 4 3 4 1 5 6 8 8 10 10 6 8 4 4 8 19 21 23 21 16 18 20 18 15 13 12 14 12 13 12 15 14 13 13 13 12 12 13 14 11 12 12 11 12 13 14 15
5 4 4 3 3 3 6 10 13 6 4 4 10 9 7 1 18 11 23 21 18 16 17 17 16 15 13 12 13 12 12 12 12 12 13 13 14 13 12 13 14 12 12 12 12 12 11 14 14
5 3 3 2 4 5 9 12 10 7 3 6 4 8 7 12 8 21 20 18 17 15 19 18 14 13 12 9 12 13 12 12 12 12 13 13 13 13 13 12 14 15 14 13 12 11 14 15 16
2 3 2 6 9 9 11 12 9 8 7 6 7 8 5 10 18 20 19 17 16 14 18 17 14 13 12 10 10 12 12 11 13 13 13 14 14 13 13 14 15 15 14 12 12 13 16 18 18
5 2 5 8 7 9 8 11 9 11 9 5 7 8 10 16 19 18 17 15 14 14 15 14 16 12 9 11 10 12 11 12 12 13 13 14 14 14 15 15 15 15 13 13 16 16 16 17 16
3 4 3 8 8 8 8 8 11 9 8 13 10 6 17 21 20 17 16 15 13 11 13 11 12 13 12 13 10 11 11 12 13 13 13 15 15 15 14 17 15 13 14 15 16 16 16 17 16
4 4 7 11 12 8 8 4 5 3 9 3 7 6 23 25 21 19 16 15 13 10 10 11 13 12 8 11 12 12 12 13 15 14 8 12 12 14 14 16 13 12 13 15 13 13 15 18 14
3 2 11 8 11 11 9 7 7 6 7 5 7 12 23 25 21 21 19 16 15 13 12 9 10 12 11 14 11 10 11 9 11 12 9 11 10 13 16 14 12 12 12 12 12 9 6 8 11
5 2 3 9 10 10 12 10 8 8 9 8 13 23 27 26 22 20 18 17 15 13 9 10 9 10 10 9 10 9 10 11 12 11 10 9 11 9 10 11 11 11 5 10 8 7 10 7 8
4 3 1 5 6 6 7 9 9 12 1 6 14 23 27 25 22 20 18 16 14 13 11 10 11 9 9 9 8 8 10 10 11 12 10 9 10 9 7 9 9 5 8 7 5 9 7 8 6
7 4 2 4 3 2 4 9 4 11 13 13 19 24 25 22 21 18 16 14 13 13 10 11 11 9 7 7 8 7 10 8 12 11 7 8 9 7 8 6 6 5 5 7 7 8 6 8 9
4 8 6 4 1 5 7 8 9 11 14 17 22 24 23 21 21 17 16 15 14 12 13 11 11 11 10 7 7 7 7 10 8 8 9 5 8 6 7 6 6 5 5 7 7 7 6 6 10
6 9 8 2 5 8 8 9 6 14 15 19 21 21 21 20 20 18 15 14 14 12 13 12 11 12 10 9 9 8 8 8 8 8 6 6 4 6 3 5 4 5 5 4 5 5 5 7 8
11 8 11 7 7 6 9 9 13 15 16 17 19 20 19 20 20 17 15 14 14 13 13 12 10 12 11 9 9 7 7 6 5 6 6 4 3 5 5 5 5 5 5 5 4 3 5 5 5
11 12 12 8 4 8 8 12 13 15 15 16 11 16 18 19 19 17 16 14 14 13 14 13 11 12 11 10 10 8 7 5 5 5 4 4 2 6 5 4 6 5 5 4 5 4 2 5 4
16 14 12 9 9 9 9 12 13 15 17 15 16 17 18 19 20 18 15 13 13 13 13 13 11 11 11 10 8 7 7 6 5 4 4 4 3 5 6 6 6 6 5 5 5 3 3 3 3
11 15 14 6 8 6 4 5 10 15 16 18 15 15 18 19 20 19 17 14 13 13 14 13 13 12 10 9 8 7 7 5 5 5 4 4 4 3 6 7 7 4 4 6 4 6 4 5 3
10 13 10 6 6 6 7 6 7 14 15 16 15 19 19 20 20 19 17 17 15 14 14 14 13 12 11 9 7 6 5 5 5 6 6 5 5 5 5 3 6 4 5 4 4 1 3 3 2
13 14 12 6 7 4 5 8 8 8 12 11 15 17 18 20 21 20 19 18 16 15 15 14 14 13 12 10 8 5 5 3 3 5 6 7 5 5 6 7 5 5 4 6 4 3 2 4 1
14 9 5 9 8 10 8 7 8 10 11 10 12 14 16 19 20 21 20 20 18 16 15 14 14 13 13 12 10 10 7 6 6 6 6 7 7 6 8 8 7 5 6 4 5 3 1 5 5
5 9 12 9 10 2 10 9 9 7 11 10 12 15 17 16 15 21 22 20 18 16 15 14 14 13 13 13 11 9 9 6 5 5 7 5 7 6 7 9 8 6 7 5 2 3 2 4 1
9 10 8 7 10 11 11 13 8 5 3 1 12 18 17 18 20 20 20 20 19 17 16 15 15 14 14 13 13 12 9 9 6 6 6 6 7 6 8 8 9 9 4 5 6 4 4 2 1
14 14 9 9 9 9 15 9 11 7 6 5 4 10 19 18 19 20 19 20 19 19 17 15 15 15 16 15 14 14 12 10 8 6 7 6 6 7 8 9 7 7 8 8 6 5 4 4 3
18 18 8 11 12 13 8 10 7 9 9 9 10 3 15 19 19 20 20 19 20 19 17 16 16 15 16 16 16 13 13 9 9 10 7 7 6 6 10 10 10 8 9 9 8 7 7 5 4
19 18 13 7 4 12 12 12 13 7 11 14 16 11 3 15 16 18 18 18 19 19 19 17 16 15 15 17 14 14 13 13 11 11 8 8 7 5 8 11 9 9 9 10 9 6 6 4 6
6 13 10 9 12 14 12 17 9 7 11 14 17 18 13 4 10 13 15 17 16 18 18 17 17 16 15 15 14 13 14 13 13 10 11 10 8 9 8 10 10 9 10 9 8 6 8 8 6
9 10 10 12 8 13 9 7 6 7 10 12 14 15 17 20 17 14 7 11 11 14 15 16 16 16 14 14 14 14 14 15 13 12 12 12 11 10 11 10 10 11 10 9 9 7 6 9 8
3 4 9 11 13 8 7 7 7 9 12 11 13 14 16 17 17 17 18 18 14 8 12 14 15 16 16 14 13 15 14 13 14 14 14 13 12 12 11 10 11 11 11 11 10 10 8 9 9
Wind_Direction
171 180 202 221 238 248 75 50 33 115 122 119 126 127 104 68 356 70 138 138 137 145 134 146 133 127 125 121 117 118 114 114 116 111 95 92 90 90 92 95 92 93 90 93 92 91 93 93 93
161 144 217 229 256 200 99 84 60 356 91 129 113 144 114 90 62 129 130 137 147 142 147 139 137 131 129 124 119 118 111 98 94 92 93 91 94 90 87 93 100 97 104 97 96 102 97 95 103
169 211 260 262 256 4 132 140 121 143 125 137 118 71 59 67 119 142 131 146 147 142 141 122 140 136 131 129 121 114 102 102 97 96 100 100 98 97 91 92 93 96 100 100 101 97 97 102 99
193 201 235 236 292 96 144 136 142 158 93 132 130 97 101 294 137 129 144 149 143 140 129 135 140 137 130 126 116 116 105 100 100 100 99 101 97 96 94 91 90 90 98 102 93 95 106 109 102
233 243 250 276 64 86 131 139 134 168 106 96 182 100 87 126 125 140 146 152 144 142 129 138 140 137 130 117 126 114 107 102 104 99 94 96 96 95 92 96 94 91 95 86 82 90 104 119 106
201 260 256 38 77 113 122 149 163 169 186 142 109 101 104 133 148 150 152 151 148 142 138 131 138 138 129 127 117 113 109 101 100 98 97 98 97 94 101 102 101 97 93 85 84 103 99 102 106
285 254 17 37 88 88 120 165 155 180 166 148 155 107 134 143 146 151 153 147 144 144 127 141 143 132 129 130 125 116 113 106 107 105 102 100 98 96 100 102 104 101 95 92 91 94 95 99 99
269 278 54 40 84 79 113 137 152 170 165 138 169 147 161 147 154 152 150 148 149 151 139 144 135 156 155 139 127 125 119 114 110 104 111 114 103 107 114 113 97 98 94 87 87 88 95 96 100
231 263 77 48 65 112 139 132 133 145 149 177 158 126 147 146 155 154 155 152 153 156 150 155 147 147 122 126 131 130 115 128 127 118 132 171 103 104 98 84 101 97 90 86 82 82 105 107 100
237 279 68 41 67 123 152 160 131 127 143 163 138 139 143 152 159 160 162 160 161 160 162 151 139 141 155 123 156 128 150 125 108 103 104 100 86 63 90 96 102 99 100 98 92 89 137 156 144
185 141 88 68 66 116 136 159 158 170 185 176 160 151 156 158 163 165 165 165 163 160 153 151 142 156 139 136 146 139 135 134 117 119 112 109 118 116 102 127 130 121 160 116 118 137 76 67 72
230 196 305 75 81 129 155 160 184 151 73 177 157 160 158 163 167 167 169 167 158 159 164 160 151 159 145 147 156 142 123 134 131 113 125 137 119 109 106 98 110 119 88 99 72 85 79 91 75
211 222 220 187 204 202 150 173 183 169 135 153 150 159 163 166 168 169 171 167 157 165 171 161 152 163 152 165 135 137 126 140 116 134 113 115 110 108 108 105 95 82 102 100 98 84 80 111 98
167 235 256 265 121 143 175 152 170 148 133 141 155 163 167 172 173 168 177 172 164 173 173 161 167 161 163 153 158 147 147 122 137 129 113 117 111 114 122 127 118 114 107 97 98 66 89 90 109
221 235 199 190 148 147 176 148 144 137 148 152 164 168 168 177 180 176 179 175 174 176 172 169 173 166 164 154 168 174 159 152 145 120 137 121 145 121 109 121 129 110 115 134 123 123 133 109 113
219 231 198 137 179 138 223 125 129 144 150 160 170 173 174 182 185 180 182 180 173 176 169 173 182 170 169 163 176 178 158 172 151 141 144 136 99 124 146 152 127 113 145 135 117 125 107 111 110
200 204 210 138 214 149 230 124 139 156 158 161 169 191 183 184 189 183 184 184 172 177 172 178 185 174 168 163 179 186 154 205 159 157 161 137 141 125 141 169 132 192 129 120 139 123 128 126 115
189 228 186 163 167 192 183 115 148 169 175 173 180 203 188 188 189 190 190 189 177 177 177 181 184 174 173 165 181 187 171 190 179 178 124 163 155 124 133 151 155 194 143 132 92 113 95 73 50
185 208 182 128 165 202 163 146 162 174 184 170 190 203 191 193 186 188 187 198 179 179 180 182 186 175 182 177 185 184 188 185 198 189 150 157 172 141 140 176 172 197 156 83 134 152 155 129 104
193 194 178 145 134 249 154 177 138 187 189 188 184 197 197 193 181 193 191 201 186 179 183 182 190 183 196 183 195 201 209 193 210 178 167 169 168 174 152 170 167 194 138 145 134 222 148 102 60
196 205 169 199 167 201 219 185 166 179 188 169 187 193 198 192 184 193 185 199 186 178 183 184 188 184 196 191 189 195 197 228 178 184 176 172 189 170 170 172 166 168 241 159 173 165 306 135 144
193 212 173 191 213 206 219 170 166 147 170 175 195 201 198 197 195 187 188 195 189 186 187 184 185 190 194 195 195 211 209 212 197 189 175 152 190 163 178 175 174 202 213 122 168 191 6 281 146
169 177 202 205 216 248 192 261 117 164 158 180 214 205 207 193 204 198 194 192 191 190 191 188 188 192 201 194 220 202 227 209 176 204 127 166 180 185 182 188 184 181 204 166 158 172 243 179 283
116 170 171 199 218 214 202 232 108 89 37 104 197 197 216 194 190 221 194 189 195 191 196 191 189 197 201 204 209 213 218 234 211 201 151 190 180 191 201 193 194 190 180 193 199 193 196 264 298
194 185 173 194 200 225 183 219 69 81 44 6 296 245 205 203 195 198 196 197 196 196 196 194 193 201 201 202 208 209 217 216 220 210 216 199 186 188 171 190 190 198 182 194 223 212 186 204 222
207 207 211 200 202 179 156 219 109 78 51 29 3 289 210 195 197 194 198 198 195 198 196 197 194 202 205 207 212 209 213 216 221 212 239 211 209 193 169 186 202 205 189 195 191 216 221 188 204
188 226 249 277 286 202 165 93 105 72 52 40 26 25 173 190 203 194 192 202 197 199 198 199 200 202 205 210 210 211 209 223 217 241 216 224 230 206 182 193 201 201 201 197 183 218 210 201 211
283 215 210 238 185 219 169 170 89 45 34 39 38 20 21 171 190 196 199 194 201 203 201 204 203 205 208 211 209 210 213 215 221 221 232 245 229 234 190 208 196 198 201 205 202 192 195 204 213
193 209 237 236 257 218 164 134 68 57 47 46 46 34 30 33 34 13 2 196 204 208 206 207 211 212 213 211 216 216 212 214 215 215 227 231 237 226 222 212 213 207 205 204 206 228 204 207 215
313 318 238 221 197 255 270 100 98 82 76 66 55 50 41 41 41 40 35 25 10 216 218 207 215 215 216 220 216 219 222 219 216 219 214 228 230 231 227 215 217 217 211 208 205 212 208 214 220